Theta_e
284 284 285 288 287 287 286 285 282 277 277 280 280 284 284 285 285 285 286 288 290 292 293 294 296 298 302 305 312 315 318 320 321 321 320 324 325 326
284 284 286 285 285 285 284 283 283 281 277 281 281 282 283 283 285 285 286 288 289 291 292 294 295 298 303 307 308 314 317 319 320 320 321 321 324 325
283 286 284 282 283 284 284 284 283 283 278 279 281 282 281 281 283 285 285 286 287 289 291 294 295 297 303 305 306 308 314 316 318 319 317 319 320 323
285 284 280 282 282 283 284 283 283 282 279 277 279 280 280 282 283 284 287 288 288 290 292 294 295 298 301 302 304 305 306 310 312 314 317 318 321 322
282 280 279 279 281 282 283 282 283 282 281 279 279 282 282 284 284 286 286 286 288 290 292 293 295 297 298 300 302 302 301 303 307 308 311 313 316 318
282 280 279 278 280 282 282 283 283 282 282 281 281 281 283 285 286 284 285 285 285 287 287 288 290 292 295 298 299 297 299 301 304 306 306 308 310 312
280 280 279 279 281 282 283 285 284 283 282 282 282 281 283 284 284 285 285 285 285 284 285 285 286 288 289 293 294 296 299 301 302 303 304 305 307 308
276 276 277 278 279 282 284 287 288 285 283 283 282 281 282 284 285 285 284 280 280 283 282 279 281 280 280 289 296 297 300 301 301 302 302 303 304 305
273 273 274 277 277 279 283 286 286 287 287 284 281 281 280 283 283 284 281 279 277 278 281 276 278 275 278 280 295 298 300 300 300 301 302 303 303 302
267 268 270 271 275 280 283 279 284 284 282 283 282 281 282 283 284 283 279 277 278 279 279 274 277 275 277 278 286 299 300 300 300 300 301 302 301 300
268 266 269 272 280 283 283 278 279 276 281 282 282 282 281 282 283 281 274 271 272 276 278 277 276 276 275 274 277 291 295 300 299 300 300 298 298 298
265 266 276 275 283 283 282 280 275 272 272 271 270 272 274 275 278 276 275 270 269 274 277 274 273 273 274 275 274 279 285 291 293 295 296 295 293 289
265 265 267 279 282 282 283 280 279 277 272 270 267 269 271 272 273 273 274 273 270 267 273 276 272 273 271 271 272 273 278 282 284 285 289 291 292 289
269 267 266 280 281 281 281 282 281 277 270 271 264 268 268 271 272 272 272 272 274 272 274 274 273 273 272 269 268 272 272 275 277 278 281 285 287 287
267 272 279 279 278 273 278 278 269 267 264 263 262 263 265 268 269 270 272 271 271 271 273 272 272 272 272 271 270 271 271 270 272 272 272 272 275 277
277 268 273 275 275 273 267 269 267 264 264 263 263 263 265 266 267 270 269 266 268 269 270 272 273 273 270 269 269 268 269 268 271 271 272 272 273 274
266 266 267 267 265 265 264 264 264 266 265 264 263 263 265 266 268 270 270 269 267 267 268 270 271 271 270 271 268 269 268 268 270 271 271 270 272 273
265 263 266 266 266 265 264 264 264 265 264 264 263 263 264 266 268 270 270 269 267 268 268 270 271 270 270 270 272 267 268 267 269 270 271 269 269 272
265 263 267 268 267 266 265 264 264 265 264 264 264 265 265 266 268 269 270 270 270 270 270 270 271 271 266 263 268 274 267 267 268 267 269 269 268 270
266 267 267 266 265 265 263 263 263 263 263 263 263 263 263 264 265 267 268 268 268 269 268 268 268 270 270 267 265 268 273 268 267 267 268 270 272 276
269 265 266 267 265 263 263 260 261 261 262 261 261 261 262 264 265 265 266 268 269 268 266 265 267 270 269 270 265 265 269 273 271 268 267 266 265 266
270 270 268 266 265 263 261 260 258 259 259 259 260 262 262 263 262 263 267 265 265 265 265 265 266 269 268 266 264 265 265 266 271 275 274 270 265 263
272 271 269 267 267 263 261 260 259 261 261 259 260 261 263 262 262 264 263 262 263 262 262 261 263 264 263 264 262 262 262 261 261 263 262 274 275 274
Wind_Speed
4 4 5 5 6 7 7 9 11 18 15 14 10 11 10 10 15 16 16 22 28 29 29 30 27 28 29 29 20 25 24 21 23 31 33 30 38 38
3 5 6 4 5 6 7 8 9 11 14 13 13 14 12 12 16 17 16 24 26 29 27 26 27 27 28 23 19 18 21 18 22 26 29 23 33 37
5 6 4 6 6 6 6 8 9 9 11 17 12 12 16 16 16 15 14 13 12 25 26 24 25 27 20 15 12 14 17 15 11 19 22 21 29 35
5 4 6 5 8 7 7 10 10 10 11 17 16 13 15 18 17 18 14 12 11 19 20 22 22 27 14 10 7 11 12 8 7 13 24 25 25 29
3 5 6 5 8 7 8 9 8 9 10 11 15 12 14 14 15 14 14 13 9 15 17 16 20 14 13 9 3 11 11 6 9 10 13 16 21 18
5 5 5 5 8 9 9 11 10 10 9 9 11 13 12 15 10 10 10 3 4 3 3 5 9 9 10 7 5 6 10 7 8 8 12 14 14 17
5 5 5 6 15 13 9 10 9 9 8 8 10 11 12 14 12 8 8 6 2 6 3 4 4 5 8 9 6 6 8 10 6 8 9 11 15 15
5 4 5 7 9 16 17 20 15 9 10 8 7 11 13 13 9 9 6 4 4 5 5 7 9 7 9 9 18 10 11 7 5 5 8 11 12 16
5 4 4 5 8 9 15 17 14 12 9 7 8 9 12 13 11 9 4 3 3 6 4 4 8 8 9 9 24 5 8 5 4 7 11 13 14 14
5 4 4 6 7 9 11 8 8 4 4 6 6 8 9 12 9 5 3 2 1 4 6 3 5 7 9 12 34 8 5 6 1 5 9 16 16 17
4 3 4 5 12 16 10 7 8 4 6 10 11 12 14 18 17 6 4 3 3 3 8 2 4 3 8 14 13 31 26 6 6 10 19 31 31 26
4 4 6 4 14 13 8 7 7 5 6 6 6 8 10 12 18 9 6 2 2 2 4 3 5 4 4 10 13 13 14 36 36 29 25 40 37 18
3 3 3 7 11 12 14 6 7 4 4 3 4 4 5 8 8 9 10 6 2 2 5 2 4 3 4 2 9 13 12 15 16 19 31 26 30 32
4 3 4 6 9 11 10 13 9 3 2 3 3 4 4 6 6 7 10 10 8 7 8 3 4 5 5 4 6 8 13 14 13 15 14 25 34 30
3 4 4 4 5 5 10 9 5 2 2 3 2 3 2 2 3 4 7 7 12 13 10 12 10 10 8 7 5 6 9 13 12 13 13 13 11 10
4 1 1 2 3 3 3 5 2 2 2 2 0 1 3 3 3 3 2 3 7 10 14 14 12 14 11 10 9 9 9 7 8 11 13 13 13 13
4 2 1 1 2 2 2 3 3 3 2 1 2 2 3 3 4 4 4 6 6 8 9 11 15 17 13 10 11 10 10 10 8 10 15 15 14 12
3 3 2 2 3 3 1 2 2 2 2 1 2 1 2 3 4 5 4 5 6 7 7 6 8 10 11 16 20 9 9 9 8 10 11 17 13 10
3 3 3 4 4 3 3 2 2 2 0 1 2 2 2 3 4 4 4 5 6 5 4 4 4 6 12 11 3 22 9 8 8 11 9 10 12 8
3 4 5 4 4 4 4 2 2 1 0 1 3 2 1 3 3 3 3 6 5 5 7 7 8 7 8 6 6 7 16 8 8 10 10 9 12 21
6 4 4 5 5 4 4 3 3 3 2 2 3 3 2 2 4 4 4 5 6 6 8 8 7 11 8 7 10 8 8 17 10 7 7 8 6 4
6 6 5 5 6 5 4 4 3 3 2 2 2 3 3 4 3 4 4 4 5 6 8 6 5 7 7 8 11 10 7 7 15 20 18 7 5 6
7 7 6 6 6 6 5 5 4 3 3 3 3 3 5 5 4 5 5 6 6 7 6 5 5 7 7 7 6 6 7 3 3 6 7 19 20 22
Wind_Direction
250 243 255 266 276 279 282 282 291 306 311 312 313 305 294 292 286 283 280 279 281 284 284 285 279 281 283 277 281 259 241 239 224 211 219 219 205 193
260 253 279 268 280 280 272 274 271 278 293 303 304 304 300 296 289 286 280 275 275 276 278 276 282 282 279 271 281 274 240 233 222 216 211 216 219 196
259 274 277 276 275 275 274 269 274 273 285 295 295 300 301 294 292 288 281 273 266 267 274 273 280 284 275 258 275 299 254 230 245 220 207 220 227 205
285 293 275 287 283 282 276 278 279 282 277 288 298 307 303 302 290 289 289 277 265 270 275 279 282 277 267 257 298 304 300 241 236 234 214 214 204 205
298 278 275 285 288 287 279 282 282 290 280 287 296 299 295 301 301 291 289 281 268 270 275 292 282 286 273 276 245 278 293 295 247 214 200 195 191 180
272 261 274 277 281 293 287 277 295 296 289 287 288 297 301 307 298 300 317 308 319 307 315 329 309 308 302 295 309 316 287 268 238 191 197 179 175 170
266 275 281 284 288 286 289 298 283 283 287 293 303 306 311 320 316 317 308 307 308 3 342 8 336 8 6 353 314 304 296 276 256 192 177 174 166 169
273 269 286 293 291 310 301 299 299 289 302 305 320 311 313 316 313 308 311 326 338 32 331 15 10 15 357 359 340 297 265 252 261 225 183 169 169 168
247 283 294 300 300 293 292 305 298 303 315 316 313 318 313 325 317 310 345 6 1 338 326 20 7 13 355 343 354 268 254 240 246 213 195 175 163 172
233 240 257 291 285 293 295 300 294 278 311 328 323 322 324 328 327 321 312 319 287 6 359 54 356 20 4 7 3 356 241 234 200 158 158 138 129 125
241 262 243 274 296 309 306 296 294 286 335 358 346 347 358 350 0 332 340 15 349 1 11 23 4 13 36 21 357 33 43 93 117 117 119 104 97 92
273 272 286 283 304 317 305 302 306 301 332 354 345 346 7 1 10 8 334 336 323 18 10 64 348 341 42 13 13 20 35 58 62 61 102 110 105 97
232 272 266 310 312 315 315 303 299 338 338 9 333 331 14 16 15 9 5 360 355 359 313 87 16 13 52 46 21 20 29 50 63 64 66 66 92 115
228 226 258 299 326 318 314 314 317 339 360 32 19 359 1 20 12 22 22 19 31 39 360 24 83 46 97 79 45 19 41 44 54 65 64 65 74 81
205 234 278 342 345 343 323 324 358 26 63 54 27 341 322 336 355 25 25 16 43 35 36 50 74 68 52 76 104 42 53 41 47 62 61 56 60 70
208 98 197 75 2 17 344 332 337 30 111 143 224 290 322 353 23 28 10 9 43 47 35 43 65 78 75 62 69 68 34 82 42 63 76 71 64 63
116 61 69 58 46 19 328 333 346 18 48 360 52 43 18 4 21 23 35 50 69 69 60 58 64 70 68 72 77 66 75 72 67 80 81 75 62 60
96 168 186 164 181 156 231 303 331 5 354 46 56 60 78 59 46 45 49 66 83 85 86 82 91 91 79 57 52 71 69 77 68 70 80 95 82 66
173 190 188 179 187 185 180 217 213 268 244 78 82 36 42 87 92 71 80 83 88 81 42 22 22 91 95 84 52 46 66 54 69 69 71 81 96 82
177 193 189 178 192 184 165 186 209 246 109 118 86 50 38 63 43 61 74 97 81 65 57 41 38 40 92 99 108 65 51 67 76 88 88 87 87 91
197 213 190 168 189 178 172 161 190 190 208 148 114 112 72 79 106 85 63 70 92 88 80 64 70 84 90 88 84 72 69 76 70 79 87 81 74 64
190 192 189 177 173 171 166 154 165 170 171 181 136 127 112 101 95 96 96 87 71 80 89 70 43 74 74 91 98 98 81 54 55 75 78 94 163 147
195 186 175 179 173 161 154 161 167 184 174 178 146 142 135 121 113 100 94 92 100 99 104 92 71 66 67 87 83 103 100 53 28 57 27 57 74 91